FW5774 Weather Reports


time (UTC)temp
C
wind
direction
speed
KPH
gust
KPH
rain 1hr
cm
rain 24hr
cm
rain mn
cm
humidity
%
barometer
mb
20200606171005 23 264 4.8 11.3 0.00 0.03 0.03 49 1007.0
20200606170505 23 276 4.8 11.3 0.00 0.03 0.03 51 1007.0
20200606170004 23 294 3.2 9.7 0.00 0.03 0.03 51 1007.1
20200606165507 23 270 4.8 9.7 0.00 0.03 0.03 51 1007.1
20200606165004 23 256 4.8 11.3 0.00 0.03 0.03 52 1007.0
20200606164504 23 246 3.2 11.3 0.00 0.03 0.03 50 1007.0
20200606164005 24 217 3.2 4.8 0.00 0.03 0.03 54 1006.9
20200606163505 23 184 1.6 4.8 0.00 0.03 0.03 54 1006.9
20200606163005 23 182 1.6 3.2 0.00 0.03 0.03 57 1006.8
20200606162504 23 180 3.2 6.4 0.00 0.03 0.03 58 1006.7
20200606162005 24 181 1.6 6.4 0.00 0.03 0.03 50 1006.9
20200606161504 24 200 1.6 4.8 0.00 0.03 0.03 51 1006.8
20200606161005 24 218 1.6 4.8 0.00 0.03 0.03 49 1006.8
20200606160505 24 214 1.6 4.8 0.00 0.03 0.03 54 1006.7
20200606160004 23 212 3.2 11.3 0.00 0.03 0.03 57 1006.7
20200606155504 23 222 4.8 11.3 0.00 0.03 0.03 49 1006.7
20200606155005 23 223 4.8 9.7 0.00 0.03 0.03 55 1006.8
20200606154504 23 173 4.8 9.7 0.00 0.03 0.03 52 1006.9
20200606154004 23 144 6.4 14.5 0.00 0.03 0.03 58 1006.6
20200606153504 23 163 6.4 14.5 0.00 0.03 0.03 49 1006.7
20200606153004 25 255 6.4 14.5 0.00 0.03 0.03 49 1006.7
20200606152505 25 264 9.7 19.3 0.00 0.03 0.03 45 1006.7
20200606152005 25 250 12.9 19.3 0.00 0.03 0.03 45 1006.7
20200606151506 25 236 9.7 19.3 0.00 0.03 0.03 49 1006.7
20200606151005 25 225 6.4 14.5 0.00 0.03 0.03 47 1006.7
20200606150505 25 234 8.0 16.1 0.00 0.03 0.03 47 1006.7
20200606150005 25 251 8.0 16.1 0.00 0.03 0.03 45 1006.8
20200606145504 25 232 4.8 16.1 0.00 0.03 0.03 47 1006.8
20200606145005 25 176 4.8 14.5 0.00 0.03 0.03 51 1007.0
20200606144506 24 172 6.4 14.5 0.00 0.03 0.03 48 1007.0
20200606144004 23 177 4.8 9.7 0.00 0.03 0.03 49 1007.0
20200606143505 24 181 4.8 9.7 0.00 0.03 0.03 49 1007.0
20200606143005 24 185 6.4 16.1 0.00 0.03 0.03 48 1007.0
20200606142519 24 186 8.0 16.1 0.00 0.03 0.03 52 1007.2
20200606142009 24 210 9.7 16.1 0.00 0.03 0.03 48 1007.0
20200606141505 25 225 11.3 16.1 0.00 0.03 0.03 49 1007.2
20200606141004 25 224 9.7 17.7 0.00 0.03 0.03 46 1007.0
20200606140504 25 223 8.0 17.7 0.00 0.03 0.03 51 1007.0
20200606140005 24 215 4.8 11.3 0.00 0.03 0.03 51 1007.0
20200606135504 23 217 6.4 12.9 0.00 0.03 0.03 51 1007.1
20200606135005 23 220 8.0 16.1 0.00 0.03 0.03 49 1007.1
20200606134504 23 208 6.4 16.1 0.00 0.03 0.03 48 1007.2
20200606134005 23 202 6.4 16.1 0.00 0.03 0.03 50 1007.2
20200606133504 23 244 8.0 16.1 0.00 0.03 0.03 51 1007.2
20200606133004 24 269 8.0 19.3 0.00 0.03 0.03 47 1007.6
20200606132505 24 252 9.7 19.3 0.00 0.03 0.03 46 1007.1
20200606132007 24 236 11.3 22.5 0.00 0.03 0.03 45 1007.4
20200606131505 25 222 9.7 22.5 0.00 0.03 0.03 49 1007.3
20200606131006 23 224 11.3 24.1 0.00 0.03 0.03 49 1007.4
20200606130504 24 227 12.9 24.1 0.00 0.03 0.03 50 1007.5
20200606130005 23 231 14.5 29.0 0.00 0.03 0.03 53 1007.4
20200606125505 24 248 14.5 29.0 0.00 0.05 0.03 45 1007.3
20200606125006 24 256 11.3 29.0 0.00 0.05 0.03 47 1007.4
20200606124504 23 240 12.9 24.1 0.00 0.05 0.03 50 1007.3
20200606124004 24 228 14.5 24.1 0.00 0.05 0.03 48 1007.4
20200606123504 23 222 14.5 20.9 0.00 0.05 0.03 54 1007.5
20200606123005 23 223 12.9 20.9 0.00 0.05 0.03 49 1007.5
20200606122505 23 235 14.5 25.7 0.00 0.05 0.03 50 1007.6
20200606122005 23 248 16.1 29.0 0.00 0.05 0.03 50 1007.5
20200606121505 23 253 16.1 29.0 0.00 0.05 0.03 49 1007.6
20200606121005 23 258 14.5 27.4 0.00 0.05 0.03 49 1007.3
20200606120505 23 251 14.5 27.4 0.00 0.05 0.03 49 1007.5
20200606120005 23 251 16.1 27.4 0.00 0.05 0.03 50 1007.3
20200606115505 23 249 14.5 27.4 0.00 0.05 0.03 47 1007.5
20200606115005 23 239 12.9 25.7 0.00 0.05 0.03 48 1007.5
20200606114505 24 247 14.5 24.1 0.00 0.05 0.03 53 1007.6
20200606114006 23 238 16.1 29.0 0.00 0.05 0.03 48 1007.6
20200606113509 23 233 17.7 29.0 0.00 0.05 0.03 48 1007.5
20200606113005 23 244 17.7 27.4 0.00 0.05 0.03 49 1007.5
20200606112505 23 244 17.7 33.8 0.00 0.05 0.03 48 1007.5
20200606112005 23 252 17.7 33.8 0.00 0.05 0.03 49 1007.5
20200606111504 23 257 17.7 29.0 0.00 0.05 0.03 47 1007.5
20200606111004 23 250 17.7 29.0 0.00 0.05 0.03 47 1007.4
20200606110505 24 254 17.7 32.2 0.00 0.05 0.03 50 1007.4
20200606110004 23 247 19.3 32.2 0.00 0.05 0.03 48 1007.3
20200606105504 23 235 20.9 30.6 0.00 0.05 0.03 53 1007.6
20200606105005 23 236 22.5 38.6 0.00 0.05 0.03 48 1007.7
20200606104506 23 239 20.9 38.6 0.00 0.05 0.03 48 1007.5
20200606104004 23 245 16.1 32.2 0.00 0.05 0.03 49 1007.5
20200606103504 23 247 17.7 30.6 0.00 0.05 0.03 47 1007.3
20200606103005 23 237 19.3 30.6 0.00 0.05 0.03 50 1007.5
20200606102504 23 223 19.3 30.6 0.00 0.05 0.03 52 1007.5
20200606102012 22 215 19.3 30.6 0.00 0.05 0.03 53 1007.5
20200606101505 22 221 19.3 30.6 0.00 0.05 0.03 52 1007.5
20200606101004 22 227 16.1 30.6 0.00 0.05 0.03 53 1007.4
20200606100508 22 212 16.1 33.8 0.00 0.05 0.03 57 1007.4
20200606100013 22 210 19.3 33.8 0.00 0.05 0.03 56 1007.6
20200606095504 22 212 17.7 32.2 0.00 0.05 0.03 54 1007.6
20200606095004 22 207 16.1 32.2 0.00 0.05 0.03 54 1007.7
20200606094504 22 221 17.7 29.0 0.00 0.05 0.03 56 1007.6
20200606094005 22 224 17.7 32.2 0.00 0.05 0.03 52 1007.6
20200606093504 21 219 16.1 32.2 0.00 0.05 0.03 57 1007.7
20200606093004 22 224 16.1 30.6 0.00 0.05 0.03 55 1007.6
20200606092504 22 208 14.5 25.7 0.00 0.05 0.03 58 1007.6
20200606092005 21 197 14.5 20.9 0.00 0.05 0.03 57 1007.5
20200606091004 21 193 12.9 22.5 0.00 0.05 0.03 60 1007.4
20200606090504 21 214 12.9 25.7 0.00 0.05 0.03 57 1007.3
20200606090005 20 204 14.5 25.7 0.00 0.05 0.03 58 1007.5
20200606085504 20 187 16.1 25.7 0.00 0.05 0.03 61 1007.7
20200606085004 20 188 12.9 25.7 0.00 0.05 0.03 60 1007.6
20200606084504 20 198 12.9 22.5 0.00 0.05 0.03 63 1007.4
20200606084004 20 214 14.5 25.7 0.00 0.05 0.03 60 1007.4
20200606083504 20 218 14.5 25.7 0.00 0.05 0.03 61 1007.4
20200606083004 20 215 12.9 25.7 0.00 0.05 0.03 58 1007.5
20200606082504 20 203 12.9 24.1 0.00 0.05 0.03 59 1007.3
20200606082005 20 196 14.5 29.0 0.00 0.05 0.03 63 1007.3
20200606081504 20 210 14.5 29.0 0.00 0.05 0.03 62 1007.2
20200606081004 20 215 14.5 24.1 0.00 0.05 0.03 62 1007.3
20200606080505 20 218 14.5 20.9 0.00 0.05 0.03 62 1007.2
20200606080005 20 217 14.5 29.0 0.00 0.05 0.03 61 1007.3
20200606075504 19 203 16.1 29.0 0.00 0.05 0.03 63 1007.1
20200606075004 19 221 17.7 29.0 0.00 0.05 0.03 63 1007.1
20200606074505 20 235 16.1 29.0 0.00 0.05 0.03 60 1007.1
20200606074004 19 229 14.5 33.8 0.00 0.05 0.03 63 1007.0
20200606073504 19 222 12.9 33.8 0.00 0.05 0.03 63 1007.0
20200606073005 18 221 14.5 24.1 0.00 0.05 0.03 65 1007.0
20200606072505 18 222 16.1 27.4 0.00 0.05 0.03 65 1007.0
20200606072004 18 217 16.1 27.4 0.00 0.05 0.03 64 1007.0
20200606071505 18 211 16.1 24.1 0.00 0.05 0.03 67 1007.0
20200606071005 18 220 16.1 27.4 0.00 0.05 0.03 66 1006.9
20200606070504 18 231 14.5 27.4 0.00 0.05 0.03 66 1007.0
20200606070004 18 222 12.9 25.7 0.00 0.05 0.03 68 1006.9
20200606065504 18 216 12.9 29.0 0.00 0.05 0.03 67 1007.0
20200606065004 18 224 14.5 29.0 0.00 0.05 0.03 66 1006.9
20200606064504 17 234 17.7 33.8 0.00 0.05 0.03 66 1006.9
20200606064004 17 242 17.7 33.8 0.00 0.05 0.03 69 1006.8
20200606063504 17 239 17.7 29.0 0.00 0.05 0.03 67 1006.8
20200606063004 17 224 16.1 29.0 0.00 0.05 0.03 69 1006.7
20200606062504 17 221 16.1 29.0 0.00 0.05 0.03 70 1006.7
20200606062004 17 227 17.7 30.6 0.00 0.05 0.03 71 1006.7
20200606061504 17 230 16.1 30.6 0.00 0.05 0.03 70 1006.7
20200606061004 17 230 14.5 24.1 0.00 0.05 0.03 73 1006.8
20200606060505 17 227 14.5 22.5 0.00 0.05 0.03 72 1006.7
20200606060004 16 227 14.5 25.7 0.00 0.05 0.03 75 1006.7
20200606055504 16 226 16.1 25.7 0.00 0.05 0.03 74 1006.6
20200606055004 16 223 16.1 25.7 0.00 0.05 0.03 74 1006.5
20200606054504 16 232 17.7 29.0 0.00 0.05 0.03 75 1006.5
20200606054004 16 240 17.7 29.0 0.00 0.05 0.03 76 1006.5
20200606053504 15 241 16.1 27.4 0.00 0.05 0.03 76 1006.7
20200606053004 15 237 16.1 24.1 0.00 0.05 0.03 76 1006.6
20200606052505 15 233 12.9 22.5 0.00 0.05 0.03 77 1006.7
20200606052004 15 230 14.5 25.7 0.03 0.05 0.03 79 1006.5
20200606051506 15 227 16.1 25.7 0.03 0.05 0.03 78 1006.5
20200606051004 15 221 14.5 22.5 0.03 0.05 0.03 80 1006.3
20200606050504 15 211 14.5 22.5 0.03 0.05 0.03 80 1006.2
20200606050004 14 202 14.5 22.5 0.03 0.05 0.03 81 1005.9
20200606045505 14 206 12.9 22.5 0.03 0.05 0.03 80 1005.8
20200606045004 14 213 11.3 22.5 0.03 0.05 0.03 81 1005.8
20200606044503 13 213 9.7 19.3 0.03 0.05 0.03 81 1006.0
20200606044005 13 211 9.7 19.3 0.03 0.05 0.03 82 1006.2
20200606043504 13 206 11.3 24.1 0.03 0.05 0.03 83 1006.1
20200606043004 13 207 12.9 24.1 0.03 0.05 0.03 83 1006.2
20200606042504 13 217 9.7 17.7 0.03 0.05 0.03 83 1006.2
20200606042005 13 221 9.7 17.7 0.00 0.03 0.00 84 1006.3
20200606041505 13 222 9.7 16.1 0.00 0.03 0.00 85 1006.2
20200606041004 12 226 9.7 22.5 0.00 0.03 0.00 85 1006.2
20200606040505 12 225 8.0 22.5 0.00 0.03 0.00 86 1006.0
20200606040005 12 217 6.4 11.3 0.00 0.03 0.00 87 1006.0
20200606035504 12 212 6.4 12.9 0.00 0.03 0.00 87 1005.9
20200606035004 12 210 6.4 12.9 0.00 0.03 0.00 87 1005.8
20200606034504 12 209 6.4 12.9 0.00 0.03 0.00 88 1005.7
20200606034004 12 211 6.4 12.9 0.00 0.03 0.00 88 1005.8
20200606033505 11 214 4.8 12.9 0.00 0.03 0.00 89 1005.7
20200606033005 11 217 4.8 12.9 0.00 0.03 0.00 89 1005.7
20200606032504 11 224 4.8 12.9 0.00 0.03 0.00 90 1005.6
20200606032004 11 223 6.4 11.3 0.00 0.03 0.00 90 1005.6
20200606031505 11 218 4.8 9.7 0.00 0.03 0.00 91 1005.6
20200606031004 10 217 4.8 8.0 0.00 0.03 0.00 92 1005.4
20200606030503 10 215 4.8 9.7 0.00 0.03 0.00 91 1005.5
20200606030004 10 219 4.8 9.7 0.00 0.03 0.00 92 1005.3
20200606025504 10 225 6.4 9.7 0.00 0.03 0.00 92 1005.3
20200606025004 10 225 6.4 9.7 0.00 0.03 0.00 92 1005.2
20200606024504 10 223 6.4 9.7 0.00 0.03 0.00 91 1005.2
20200606024004 10 220 6.4 11.3 0.00 0.03 0.00 91 1005.0
20200606023504 10 220 8.0 14.5 0.00 0.03 0.00 91 1005.0
20200606023005 11 218 8.0 14.5 0.00 0.03 0.00 91 1005.0
20200606022504 11 219 8.0 14.5 0.00 0.03 0.00 91 1004.9
20200606022004 11 221 8.0 14.5 0.00 0.03 0.00 91 1004.9
20200606021503 11 225 8.0 12.9 0.00 0.03 0.00 91 1004.9
20200606021004 11 227 8.0 12.9 0.00 0.03 0.00 90 1004.9
20200606020505 11 226 8.0 12.9 0.00 0.03 0.00 90 1004.8
20200606020003 11 226 8.0 12.9 0.00 0.03 0.00 90 1004.8
20200606015505 11 225 8.0 14.5 0.00 0.03 0.00 90 1004.7
20200606015004 11 226 9.7 14.5 0.00 0.03 0.00 89 1004.7
20200606014504 11 228 8.0 14.5 0.00 0.03 0.00 89 1004.6
20200606014004 11 231 8.0 12.9 0.00 0.03 0.00 89 1004.7
20200606013505 11 230 8.0 14.5 0.00 0.03 0.00 89 1004.7
20200606013004 11 226 9.7 16.1 0.00 0.03 0.00 89 1004.7
20200606012504 11 222 9.7 19.3 0.00 0.03 0.00 89 1004.6
20200606012004 11 218 11.3 19.3 0.00 0.03 0.00 89 1004.6
20200606011504 11 214 11.3 19.3 0.00 0.03 0.00 89 1004.5
20200606011004 11 211 11.3 17.7 0.00 0.03 0.00 90 1004.4
20200606010504 11 214 9.7 17.7 0.00 0.03 0.00 89 1004.4
20200606010004 11 219 9.7 17.7 0.00 0.03 0.00 89 1004.4
20200606005503 11 223 9.7 16.1 0.00 0.03 0.00 89 1004.4
20200606005004 11 221 9.7 20.9 0.00 0.03 0.00 90 1004.4
20200606004504 11 215 11.3 20.9 0.00 0.03 0.00 90 1004.4
20200606004004 11 214 9.7 16.1 0.00 0.03 0.00 90 1004.3
20200606003504 11 217 9.7 16.1 0.00 0.03 0.00 90 1004.2
20200606003005 11 218 9.7 16.1 0.00 0.03 0.00 90 1004.3
20200606002504 11 218 9.7 16.1 0.00 0.03 0.00 90 1004.2
20200606002004 11 216 9.7 16.1 0.00 0.03 0.00 91 1004.3
20200606001504 11 216 9.7 14.5 0.00 0.03 0.00 91 1004.2
20200606001005 11 217 9.7 14.5 0.00 0.03 0.00 91 1004.2
20200606000504 11 216 9.7 14.5 0.00 0.03 0.00 91 1004.0
20200606000004 11 214 9.7 16.1 0.00 0.03 0.00 91 1004.1
20200605235505 11 214 9.7 17.7 0.00 0.03 0.00 91 1004.0
20200605235004 11 214 9.7 17.7 0.00 0.03 0.00 91 1003.9
20200605234503 11 213 9.7 17.7 0.00 0.03 0.00 91 1003.8
20200605234004 11 213 8.0 12.9 0.00 0.03 0.00 91 1003.7
20200605233504 12 214 8.0 16.1 0.00 0.03 0.00 91 1003.6
20200605233004 12 213 9.7 16.1 0.00 0.03 0.00 91 1003.5
20200605232503 12 214 8.0 16.1 0.00 0.03 0.00 91 1003.4
20200605232004 12 215 8.0 12.9 0.00 0.03 0.00 91 1003.4
20200605231504 12 214 9.7 17.7 0.00 0.03 0.00 91 1003.4
20200605231004 12 211 9.7 17.7 0.00 0.03 0.00 92 1003.3
20200605230505 12 213 9.7 16.1 0.00 0.03 0.00 92 1003.3
20200605230005 11 217 9.7 12.9 0.00 0.03 0.00 93 1003.2
20200605225510 11 218 8.0 12.9 0.00 0.03 0.00 93 1003.2
20200605225004 11 219 8.0 12.9 0.00 0.03 0.00 93 1003.1
20200605224504 11 220 8.0 12.9 0.00 0.03 0.00 93 1003.2
20200605224004 11 218 8.0 11.3 0.00 0.03 0.00 93 1003.1
20200605223507 11 220 8.0 14.5 0.00 0.03 0.00 92 1003.0
20200605223004 11 228 8.0 14.5 0.00 0.03 0.00 92 1003.0
20200605222503 11 232 9.7 14.5 0.00 0.03 0.00 93 1003.0
20200605222004 11 226 9.7 14.5 0.00 0.03 0.00 93 1002.9
20200605221525 11 223 9.7 14.5 0.00 0.03 0.00 93 1002.9
20200605221004 11 225 9.7 14.5 0.00 0.03 0.00 93 1002.8
20200605220505 11 223 9.7 14.5 0.00 0.03 0.00 93 1002.8
20200605220005 11 222 9.7 16.1 0.00 0.03 0.00 93 1002.7
20200605215504 11 222 9.7 16.1 0.00 0.03 0.03 93 1002.7
20200605215004 11 215 8.0 14.5 0.00 0.03 0.03 93 1002.7
20200605214504 11 211 8.0 11.3 0.00 0.03 0.03 93 1002.6
20200605214003 11 218 9.7 16.1 0.00 0.03 0.03 93 1002.6
20200605213503 11 220 9.7 16.1 0.00 0.03 0.03 93 1002.6
20200605213004 11 218 8.0 12.9 0.00 0.03 0.03 94 1002.6
20200605212504 11 216 8.0 12.9 0.00 0.03 0.03 94 1002.4
20200605212004 11 215 8.0 11.3 0.00 0.03 0.03 94 1002.5
20200605211505 11 219 8.0 14.5 0.00 0.03 0.03 94 1002.5
20200605211003 11 223 6.4 14.5 0.00 0.03 0.03 94 1002.4
20200605210503 11 221 6.4 11.3 0.00 0.03 0.03 94 1002.5
20200605210003 11 221 6.4 12.9 0.00 0.03 0.03 94 1002.5
20200605205503 11 225 6.4 12.9 0.00 0.03 0.03 94 1002.5
20200605205003 11 224 6.4 9.7 0.00 0.03 0.03 94 1002.4
20200605204504 11 220 6.4 9.7 0.00 0.03 0.03 94 1002.4
20200605204004 11 219 6.4 9.7 0.00 0.03 0.03 95 1002.4
20200605203504 11 222 6.4 9.7 0.00 0.03 0.03 94 1002.3
20200605203003 11 223 4.8 9.7 0.00 0.03 0.03 94 1002.2
20200605202504 11 211 4.8 8.0 0.00 0.03 0.03 94 1002.2
20200605202003 11 218 4.8 6.4 0.00 0.03 0.03 93 1002.2
20200605201504 12 251 3.2 6.4 0.00 0.03 0.03 94 1002.2
20200605201004 12 243 3.2 4.8 0.00 0.03 0.03 94 1002.4
20200605200504 12 206 1.6 4.8 0.00 0.03 0.03 94 1002.5
20200605200003 12 196 1.6 3.2 0.00 0.03 0.03 93 1002.3
20200605195504 12 196 1.6 3.2 0.00 0.03 0.03 93 1002.3
20200605195003 12 196 1.6 3.2 0.00 0.03 0.03 93 1002.2
20200605194505 12 196 3.2 4.8 0.00 0.03 0.03 93 1002.1
20200605194005 12 196 3.2 4.8 0.00 0.03 0.03 92 1002.0
20200605193505 12 196 3.2 6.4 0.00 0.03 0.03 92 1002.0
20200605193005 13 196 3.2 6.4 0.00 0.03 0.03 92 1002.0
20200605192505 13 196 4.8 6.4 0.00 0.03 0.03 92 1002.0
20200605192005 13 201 4.8 8.0 0.00 0.03 0.03 93 1001.9
20200605191505 13 211 4.8 8.0 0.00 0.03 0.03 93 1001.9
20200605191008 13 206 4.8 6.4 0.00 0.03 0.03 93 1001.9
20200605190505 13 192 4.8 6.4 0.00 0.03 0.03 93 1001.7
20200605190005 13 188 4.8 6.4 0.00 0.03 0.03 93 1001.6
20200605185505 13 197 4.8 6.4 0.00 0.03 0.03 93 1001.6
20200605185005 13 209 4.8 6.4 0.00 0.03 0.03 93 1001.7
20200605184505 13 219 3.2 4.8 0.00 0.03 0.03 93 1001.6
20200605184006 13 220 3.2 4.8 0.00 0.03 0.03 92 1001.7
20200605183505 13 220 1.6 3.2 0.00 0.03 0.03 92 1001.6
20200605183005 13 221 1.6 3.2 0.00 0.03 0.03 91 1001.5
20200605182505 13 221 1.6 3.2 0.00 0.03 0.03 90 1001.4
20200605182005 13 221 1.6 3.2 0.00 0.03 0.03 89 1001.5
20200605181504 13 221 1.6 3.2 0.00 0.05 0.03 89 1001.3
20200605181005 13 221 3.2 4.8 0.00 0.05 0.03 90 1001.3
20200605180505 13 221 3.2 6.4 0.00 0.05 0.03 89 1001.2
20200605180005 13 230 4.8 6.4 0.00 0.05 0.03 88 1001.1
20200605175506 13 242 4.8 8.0 0.00 0.05 0.03 87 1001.2
20200605175005 13 246 4.8 8.0 0.00 0.05 0.03 87 1001.0
20200605174506 14 260 3.2 11.3 0.00 0.05 0.03 87 1001.0
20200605174005 14 270 3.2 11.3 0.00 0.05 0.03 86 1001.0
20200605173505 14 268 3.2 6.4 0.00 0.05 0.03 85 1001.0
20200605173005 14 282 3.2 19.3 0.00 0.05 0.03 85 1001.0
20200605172505 14 291 4.8 19.3 0.00 0.05 0.03 85 1000.9
20200605172006 14 281 8.0 20.9 0.00 0.05 0.03 85 1000.8
20200605171504 15 256 11.3 20.9 0.00 0.05 0.03 88 1000.8